Weather Roundup
Issued by NWS Chicago, IL

Home | Current Version | Previous Version | Text Only | Print | Product List | Glossary On
Versions: 1 2 3 4 5 6 7 8 9 10 11 12 13 14 15 16 17 18 19 20 21 22 23 24 25 26 27 28 29 30 31 32 33 34 35 36 37 38 39 40 41 42 43 44 45 46 47 48 49 50
000
NZUS59 KLOT 230203
HRRLOT

CHICAGO AREA WEATHER ROUNDUP
NATIONAL WEATHER SERVICE CHICAGO/ROMEOVILLE IL
800 PM CST MON JAN 22 2018

NOTE: "FAIR" INDICATES FEW OR NO CLOUDS BELOW 12,000 FEET WITH NO
SIGNIFICANT WEATHER AND/OR OBSTRUCTIONS TO VISIBILITY.

* THESE STATIONS ARE NOT UNDER NWS QUALITY CONTROL. THEY ALSO MAY NOT
  REPORT WEATHER SUCH AS PRECIPITATION OR FOG.

ILZ005-006-012>014-019>023-230300-
NORTHEAST ILLINOIS

CITY           SKY/WX    TMP DP  RH WIND       PRES   REMARKS
OHARE          CLOUDY    42  37  82 W21G29    29.49R
MIDWAY         CLOUDY    44  38  79 W23G31    29.51R
AURORA         CLOUDY    39  36  89 W10       29.50S
LANSING*       CLOUDY    43  39  88 W14G25    29.52R
WAUKEGAN       LGT RAIN  44  41  89 SW6       29.44R
DUPAGE AIRPORT LGT RAIN  40  38  93 W17G28    29.50R
WHEELING       CLOUDY    44  40  85 W13G28    29.49R
NORTHERLY ISL    N/A     44  37  76 W17         N/A
$$

WIZ051-052-058>065-066-070>072-230300-
SOUTHEAST WISCONSIN

CITY           SKY/WX    TMP DP  RH WIND       PRES   REMARKS
MILWAUKEE      FOG       36  36 100 NE17      29.44F VSB 1/4
KENOSHA*       TSTM      43  41  93 S8        29.44R FOG
RACINE*        FOG       37  37 100 VRB6      29.48R VSB 1/2
WAUKESHA       LGT RAIN  34  34 100 NE9       29.47R FOG     WCI  26
$$

INZ001>003-010>013-019-020-230300-
NORTHWEST INDIANA

CITY           SKY/WX    TMP DP  RH WIND       PRES   REMARKS
GARY*          MOCLDY    45  37  76 W23G41    29.52R
MICHIGAN CITY* NOT AVBL
RENSSELAER*    NOT AVBL
VALPARAISO     LGT RAIN  46  41  82 MISG      29.50R
$$

LMZ740>746-230300-
SOUTHERN LAKE MICHIGAN

STATION/POSITION TIME  SKY/WX   TEMP WIND        PRES    VSBY
                                AIR  DIR/SP/G
                 (UTC)          (F)  (DEG/KT/KT) (MB)    (MI)
HARRISON CRIB    0130            45  250/ 20/ 23   N/A
BURNHAM HARBOR   0200            43  250/  9/ 17   N/A
CALUMET HARBOR   0130            44  230/ 17/ 24  998.4R
BURNS HARBOR     0140            51  220/ 21/ 32  999.0R
MICHIGAN CITY    0140            49  120/  8/  9   N/A
$$

ABBREVIATIONS USED IN REMARKS
   TC - TEMPERATURE IN CELSIUS
  WCI - WIND CHILL INDEX
   HX - HEAT INDEX
  VSB - VISIBILITY
$$




USA.gov is the U.S. government's official web portal to all federal, state and local government web resources and services.